Location: Newark
(27.9675°N, 86.8869°E)
Time: 07:13:00
(UTC+00:00)

SR - All Passes

Search period start: 21 October 2019 00:00
Search period end: 31 October 2019 00:00
Orbit: 574 x 881 km, 66.7° (Epoch: 20 October)

Date Brightness Start Highest point End Pass type
(mag) Time Alt. Az. Time Alt. Az. Time Alt. Az.
21 Oct - 01:23:47 10° NNW 01:29:41 63° ENE 01:35:23 10° SE daylight
21 Oct - 03:08:19 10° WNW 03:11:09 14° WSW 03:13:57 10° SW daylight
21 Oct - 14:07:53 10° SE 14:10:10 13° ESE 14:12:31 10° ENE night (unlit)
21 Oct - 15:47:03 10° SW 15:51:36 45° WNW 15:56:36 10° N night (unlit)
22 Oct - 00:34:40 10° N 00:39:52 31° ENE 00:44:56 10° ESE daylight
22 Oct - 02:16:46 10° NW 02:21:52 31° WSW 02:26:48 10° SSW daylight
22 Oct - 14:57:15 10° SSW 15:01:56 75° ESE 15:07:07 10° NNE night (unlit)
22 Oct - 16:43:51 10° WNW 16:44:41 10° NW 16:45:33 10° NW night (unlit)
22 Oct - 23:46:24 10° NNE 23:49:50 16° NE 23:53:15 10° E visible
23 Oct - 01:26:31 10° NNW 01:32:25 67° WSW 01:38:05 10° SSE daylight
23 Oct - 14:08:24 10° SSE 14:12:30 30° ESE 14:16:57 10° NE night (unlit)
23 Oct - 15:50:45 10° WSW 15:54:33 22° WNW 15:58:38 10° N night (unlit)
24 Oct - 00:36:56 10° NNW 00:42:47 59° ENE 00:48:26 10° SE daylight
24 Oct - 02:21:08 10° WNW 02:24:17 15° WSW 02:27:23 10° SW daylight
24 Oct - 13:21:19 10° SE 13:23:17 12° ESE 13:25:18 10° ENE night (unlit)
24 Oct - 15:00:03 10° SW 15:04:40 49° WNW 15:09:45 10° NNE night (unlit)
24 Oct - 23:47:51 10° N 23:52:57 29° ENE 23:57:55 10° ESE visible
25 Oct - 01:29:47 10° NW 01:34:59 33° WSW 01:40:01 10° S daylight
25 Oct - 14:10:20 10° SSW 14:15:01 70° ESE 14:20:13 10° NNE night (unlit)
25 Oct - 15:56:07 10° WNW 15:57:43 11° NW 15:59:20 10° NNW night (unlit)
25 Oct - 22:59:42 10° NNE 23:02:54 15° NE 23:06:03 10° E visible
26 Oct - 00:39:37 10° NNW 00:45:32 71° WSW 00:51:12 10° SSE daylight
26 Oct - 13:21:35 10° SSE 13:25:37 28° ESE 13:29:59 10° NE visible
26 Oct - 15:03:39 10° WSW 15:07:36 24° WNW 15:11:51 10° N night (unlit)
26 Oct - 23:50:03 10° NNW 23:55:53 55° ENE 00:01:29 10° SE visible
27 Oct - 01:34:00 10° WNW 01:37:25 16° WSW 01:40:46 10° SW daylight
27 Oct - 12:34:49 10° ESE 12:36:24 11° ESE 12:38:00 10° E visible
27 Oct - 14:13:03 10° SW 14:17:44 53° WNW 14:22:53 10° NNE visible
27 Oct - 23:01:02 10° N 23:06:01 27° ENE 23:10:52 10° ESE visible
28 Oct - 00:42:50 10° NW 00:48:07 35° WSW 00:53:12 10° S daylight
28 Oct - 13:23:24 10° SSW 13:28:07 64° ESE 13:33:18 10° NNE visible
28 Oct - 15:08:41 10° WNW 15:10:45 12° NW 15:12:53 10° NNW visible
28 Oct - 22:13:03 10° NNE 22:15:56 14° NE 22:18:48 10° E visible
28 Oct - 23:52:43 10° NNW 23:58:38 76° WSW 00:04:18 10° SSE visible
29 Oct - 12:34:45 10° SSE 12:38:43 26° ESE 12:43:00 10° NE visible
29 Oct - 14:16:34 10° WSW 14:20:39 26° WNW 14:25:04 10° N visible
29 Oct - 23:03:12 10° NNW 23:08:58 52° ENE 23:14:31 10° SE visible
30 Oct - 00:46:53 10° WNW 00:50:33 17° WSW 00:54:07 10° SW daylight
30 Oct - 11:48:32 10° ESE 11:49:30 11° ESE 11:50:30 10° E visible
30 Oct - 13:26:04 10° SW 13:30:48 58° WNW 13:36:02 10° NNE visible
30 Oct - 22:14:14 10° N 22:19:06 26° ENE 22:23:48 10° ESE visible
